Location: Kikino
(54.4440°N, 112.0940°W)
Time: 19:48:39
(UTC+00:00)

A-11 Canister half - Pass Details

Date: 28 May 2024
Orbit: 1525 x 1683 km, 47.3° (Epoch: 12 June)

Event Time Altitude Azimuth Distance (km) Brightness Sun altitude
Rises 11:05:53 0° 281° (WNW) 4,796 11.2 -0.6°
Reaches altitude 10° 11:12:22 10° 250° (WSW) 3,849 10.5 0.1°
Maximum altitude 11:14:39 11° 236° (WSW) 3,779 10.4 0.4°
Drops below altitude 10° 11:16:58 10° 222° (SW) 3,873 10.5 0.6°
Sets 11:23:38 0° 191° (S) 4,891 11.2 1.4°
